Regional Weather Roundup
Issued by NWS

Home | Current Version | Previous Version | Text Only | Print | Product List | Glossary Off
Versions: 1 2 3 4 5 6 7 8 9 10 11 12 13 14 15 16 17 18 19 20 21 22 23 24 25 26 27 28 29 30 31 32 33 34 35 36 37 38 39 40 41 42 43 44 45 46 47 48 49 50

000
ASUS45 KPSR 241710
RWRAZ

ARIZONA HOURLY REGIONAL WEATHER ROUNDUP
NATIONAL WEATHER SERVICE PHOENIX AZ
1000 AM MST FRI MAR 24 2017

NOTE: FAIR INDICATES FEW OR NO CLOUDS BELOW 12,000 FEET WITH NO
SIGNIFICANT WEATHER AND/OR OBSTRUCTIONS TO VISIBILITY.

AZZ001>003-036-241800-
NORTHWEST ARIZONA

CITY           SKY/WX    TMP DP  RH WIND       PRES   REMARKS
BULLHEAD CITY  SUNNY     63  34  34 CALM      30.21S
KINGMAN        SUNNY     59  24  26 CALM      30.25R
$$

AZZ004>008-015-016-018-241800-
NORTH CENTRAL ARIZONA

CITY           SKY/WX    TMP DP  RH WIND       PRES   REMARKS
GRAND CANYON   SUNNY     46  22  38 NW7       30.28
WILLIAMS       SUNNY     45  27  49 N9        30.29R
PRESCOTT       SUNNY     51  32  48 N9        30.27S
FLAGSTAFF      SUNNY     42  16  34 CALM      30.27R
PAYSON         SUNNY     50  34  53 W5        30.28R
PAGE           SUNNY     54  32  43 NE6       30.22R
$$

AZZ009>014-017-241800-
NORTHEAST ARIZONA

CITY           SKY/WX    TMP DP  RH WIND       PRES   REMARKS
WINSLOW        SUNNY     54  26  34 NW15      30.25R
SAINT JOHNS    SUNNY     50  27  40 NW17      30.23R
WINDOW ROCK    MOSUNNY   46  30  53 NW7       30.21R
SHOW LOW       SUNNY     45  25  45 NW9G16    30.28R
$$

AZZ023-241800-
GREATER PHOENIX AREA

CITY           SKY/WX    TMP DP  RH WIND       PRES   REMARKS
PHOENIX        SUNNY     63  37  38 E3        30.22R
BUCKEYE        SUNNY     63  39  42 CALM      30.23S
GLENDALE       SUNNY     63  41  45 CALM      30.24R
LUKE AFB       SUNNY     63  38  39 W3        30.22R
DEER VALLEY    SUNNY     60  38  43 CALM      30.22R
SCOTTSDALE     SUNNY     62  36  37 CALM      30.24R
MESA-GATEWAY   SUNNY     61  37  41 SE3       30.24R
CHANDLER       SUNNY     61  36  39 CALM      30.23R
$$

AZZ027-028-241800-
SOUTHWEST MARICOPA COUNTY AND PINAL COUNTY

CITY           SKY/WX    TMP DP  RH WIND       PRES   REMARKS
CASA GRANDE    NOT AVBL
GILA BEND      FAIR      67  37  33 W6        30.22R
$$

AZZ503-504-507>509-241800-
SOUTHEAST ARIZONA

CITY           SKY/WX    TMP DP  RH WIND       PRES   REMARKS
TUCSON         SUNNY     61  30  31 W7        30.26R
DAVIS-MONTHAN  SUNNY     60  30  32 VRB3      30.24S
NOGALES        SUNNY     59  26  28 VRB5      30.25R
SIERRA VISTA   SUNNY     56  25  29 NW16G22   30.27R
DOUGLAS        SUNNY     59  26  28 NW9       30.23F
SAFFORD        SUNNY     60  31  33 NW23G29   30.19R
$$

AZZ020-021-025-026-031-241800-
SOUTHWEST ARIZONA

CITY           SKY/WX    TMP DP  RH WIND       PRES   REMARKS
YUMA           SUNNY     67  42  40 CALM      30.20R
$$

CAZ031-033-041-043-047-048-061-241800-
SOUTHERN CALIFORNIA

CITY           SKY/WX    TMP DP  RH WIND       PRES   REMARKS
DOWNTOWN L.A.  SUNNY     62  48  60 E3        30.25S
L.A. AIRPORT   MOSUNNY   61  49  64 SE5       30.26R
SAN DIEGO      SUNNY     60  46  59 CALM      30.27R
BURBANK        SUNNY     59  43  55 CALM      30.25R
ONTARIO        MOSUNNY   58  41  53 CALM      30.25S
RIVERSIDE      SUNNY     57  43  59 E3        30.26R
PALM SPRINGS   SUNNY     68  37  32 SW3       30.21R
EL CENTRO NAS  SUNNY     65  39  38 SW5       30.22R
IMPERIAL       SUNNY     65  40  39 SW5       30.19S
BLYTHE         SUNNY     67  36  31 CALM      30.20R
NEEDLES        SUNNY     67  34  29 E3        30.21R
$$

NVZ020-UTZ003-241800-
SOUTHERN NEVADA-UTAH

CITY           SKY/WX    TMP DP  RH WIND       PRES   REMARKS
LAS VEGAS      MOSUNNY   62  30  29 VRB6      30.22R
SALT LAKE CITY MOSUNNY   48  37  65 SE14      30.22S
$$

NMZ009-TXZ055-241800-
NEW MEXICO-WEST TEXAS

CITY           SKY/WX    TMP DP  RH WIND       PRES   REMARKS
ALBUQUERQUE    PTSUNNY   54  27  35 N25G33    30.04S
EL PASO        MOSUNNY   59  25  27 W15G25    30.12R
$$


........................KEY........................
SKY/WX - SKY CONDITION/WEATHER
TMP    - TEMPERATURE IN FAHRENHEIT
DP     - DEW POINT IN FAHRENHEIT
RH     - RELATIVE HUMIDITY IN PERCENT
WIND   - DIRECTION AND SPEED IN MILES PER HOUR (MPH)
VRB    - VARIABLE WIND DIRECTION
PRES   - MEAN SEA LEVEL PRESSURE IN INCHES OF MERCURY
         F - FALLING PRESSURE   R - RISING PRESSURE
         S - STEADY PRESSURE
VSB    - VISIBILITY IN MILES
HX     - HEAT INDEX IN FAHRENHEIT
WCI    - WIND CHILL INDEX IN FAHRENHEIT
TC     - TEMPERATURE IN CELSIUS WHICH IS ALSO KNOWN AS
         TEMPERATURE IN CENTIGRADE
AFB    - AIR FORCE BASE
         LUKE AFB IS LUKE AIR FORCE BASE
         DAVIS-MONTHAN IS DAVIS-MONTHAN AIR FORCE BASE
NAS    - NAVAL AIR STATION
         EL CENTRO NAS IS EL CENTRO NAVAL AIR STATION
N/A    - NOT AVAILABLE




USA.gov is the U.S. government's official web portal to all federal, state and local government web resources and services.